User: anonymous   Login
Location: Campillo
(40.8621°N, 4.2488°W)
Time: 00:16:05
(UTC+00:00)
Language:

Cosmos 1437 - Orbit

View from above orbital plane
View from above orbital plane
View from above satellite
View from above satellite

Ground track
Ground track

The orbit data is extracted from the following two-line orbital elements,

1 13770U 83003A   21208.60663612  .00028711  00000-0  16429-3 0  9999
2 13770  81.1487  77.3794 0000228 302.9525  57.1715 15.78678600120506
Epoch (UTC): 27 July 2021 14:33:33
Eccentricity: 0.0000228
inclination: 81.1487°
perigee height: 334 km
apogee height: 334 km
right ascension of ascending node: 77.3794°
argument of perigee: 302.9525°
revolutions per day: 15.78678600
mean anomaly at epoch: 57.1715°
orbit number at epoch: 12050

The dashed part of the orbit path shows where the satellite is in the earth's shadow,  

DLR